When you browse on this site, cookies collect data to enhance your experience and personalize the content and advertising you see.
Visit our Privacy Policy to learn more. By continuing to use the site, you agree to this use of cookies and data.
  • In Czech Republic
  • List of Countries
  • For 7 days
  • Water Temperature
  • Satellite Maps
  • Weather Map
  • Weather Widgets
  • user-avatar
    Login

    Hourly Weather Changchun

    Today, 20 March, Wednesday

    Time Temperature Precipitation Wind Pressure Humidity
    00:00 +12°C° 0 mm 8 mps 734 mmHg 53%
    01:00 +11°C° 0 mm 7 mps 735 mmHg 55%
    02:00 +10°C° 0 mm 5 mps 735 mmHg 57%
    03:00 +9°C° 0 mm 5 mps 735 mmHg 57%
    04:00 +8°C° 0 mm 4 mps 736 mmHg 56%
    05:00 +7°C° 0 mm 3 mps 736 mmHg 56%
    06:00 +7°C° 0 mm 3 mps 736 mmHg 55%
    07:00 +6°C° 0 mm 4 mps 737 mmHg 53%
    08:00 +5°C° 0 mm 4 mps 737 mmHg 51%
    09:00 +6°C° 0 mm 4 mps 737 mmHg 49%
    10:00 +7°C° 0 mm 4 mps 737 mmHg 47%
    11:00 +7°C° 0 mm 4 mps 737 mmHg 45%
    12:00 +8°C° 0.1 mm 4 mps 737 mmHg 44%
    13:00 +8°C° 0.1 mm 4 mps 737 mmHg 44%
    14:00 +10°C° 0.1 mm 4 mps 736 mmHg 43%
    15:00 +8°C° 0.4 mm 4 mps 736 mmHg 46%
    16:00 +7°C° 0.4 mm 4 mps 736 mmHg 49%
    17:00 +6°C° 0.4 mm 4 mps 736 mmHg 53%
    18:00 +5°C° 0.3 mm 5 mps 736 mmHg 57%
    19:00 +3°C° 0.3 mm 5 mps 736 mmHg 61%
    20:00 +2°C° 0.3 mm 5 mps 736 mmHg 65%
    21:00 +1°C° 0.7 mm 5 mps 735 mmHg 72%
    22:00 0°C° 0.7 mm 5 mps 735 mmHg 79%
    23:00 0°C° 0.7 mm 5 mps 735 mmHg 86%

    Tomorrow, 21 March, Thursday

    Time Temperature Precipitation Wind Pressure Humidity
    00:00 -1°C° 0.8 mm 5 mps 735 mmHg 88%
    01:00 -3°C° 0.8 mm 6 mps 734 mmHg 90%
    02:00 -3°C° 0.8 mm 7 mps 734 mmHg 92%
    03:00 -4°C° 0.7 mm 7 mps 734 mmHg 92%
    04:00 -6°C° 0.7 mm 7 mps 734 mmHg 92%
    05:00 -7°C° 0.7 mm 8 mps 734 mmHg 92%
    06:00 -7°C° 0.7 mm 8 mps 734 mmHg 91%
    07:00 -8°C° 0.7 mm 8 mps 735 mmHg 90%
    08:00 -8°C° 0.7 mm 8 mps 736 mmHg 90%
    09:00 -9°C° 0.4 mm 9 mps 736 mmHg 88%
    10:00 -9°C° 0.4 mm 9 mps 737 mmHg 86%
    11:00 -9°C° 0.4 mm 9 mps 738 mmHg 84%
    12:00 -8°C° 0.1 mm 9 mps 739 mmHg 79%
    13:00 -6°C° 0.1 mm 8 mps 740 mmHg 74%
    14:00 -6°C° 0.1 mm 8 mps 740 mmHg 69%
    15:00 -6°C° 0 mm 7 mps 741 mmHg 70%
    16:00 -6°C° 0 mm 5 mps 741 mmHg 71%
    17:00 -5°C° 0 mm 4 mps 742 mmHg 72%
    18:00 -6°C° 0 mm 3 mps 742 mmHg 74%
    19:00 -7°C° 0 mm 3 mps 743 mmHg 75%
    20:00 -9°C° 0 mm 3 mps 743 mmHg 77%
    21:00 -9°C° 0 mm 3 mps 744 mmHg 75%
    22:00 -10°C° 0 mm 3 mps 744 mmHg 74%
    23:00 -10°C° 0 mm 3 mps 744 mmHg 72%

    Day after tomorrow, 22 March, Friday

    Time Temperature Precipitation Wind Pressure Humidity
    00:00 -9°C° 0 mm 2 mps 745 mmHg 72%
    01:00 -10°C° 0 mm 2 mps 745 mmHg 71%
    02:00 -10°C° 0 mm 2 mps 745 mmHg 71%
    03:00 -10°C° 0 mm 2 mps 745 mmHg 70%
    04:00 -9°C° 0 mm 1 mps 744 mmHg 68%
    05:00 -9°C° 0 mm 1 mps 744 mmHg 67%
    06:00 -9°C° 0 mm 2 mps 744 mmHg 68%
    07:00 -7°C° 0 mm 2 mps 744 mmHg 69%
    08:00 -6°C° 0 mm 2 mps 744 mmHg 69%
    09:00 -5°C° 0 mm 3 mps 744 mmHg 71%
    10:00 -4°C° 0 mm 4 mps 744 mmHg 73%
    11:00 -2°C° 0 mm 4 mps 744 mmHg 75%
    12:00 -2°C° 0.1 mm 4 mps 744 mmHg 70%
    13:00 -1°C° 0.1 mm 4 mps 743 mmHg 66%
    14:00 -1°C° 0.1 mm 4 mps 742 mmHg 61%
    15:00 -1°C° 0 mm 4 mps 742 mmHg 61%
    16:00 0°C° 0 mm 3 mps 742 mmHg 62%
    17:00 -1°C° 0 mm 2 mps 742 mmHg 63%
    18:00 -2°C° 0 mm 2 mps 742 mmHg 64%
    19:00 -2°C° 0 mm 2 mps 742 mmHg 65%
    20:00 -1°C° 0 mm 1 mps 742 mmHg 67%
    21:00 -3°C° 0 mm 2 mps 742 mmHg 69%
    22:00 -3°C° 0 mm 2 mps 742 mmHg 72%
    23:00 -4°C° 0 mm 2 mps 742 mmHg 74%

    23 March, Saturday

    Time Temperature Precipitation Wind Pressure Humidity
    00:00 -4°C° 0 mm 2 mps 742 mmHg 76%
    01:00 -6°C° 0 mm 3 mps 742 mmHg 78%
    02:00 -6°C° 0 mm 3 mps 742 mmHg 80%
    03:00 -6°C° 0 mm 3 mps 743 mmHg 79%
    04:00 -7°C° 0 mm 3 mps 743 mmHg 79%
    05:00 -7°C° 0 mm 3 mps 743 mmHg 78%
    06:00 -6°C° 0 mm 3 mps 744 mmHg 74%
    07:00 -6°C° 0 mm 3 mps 744 mmHg 70%
    08:00 -5°C° 0 mm 3 mps 745 mmHg 65%
    09:00 -4°C° 0 mm 4 mps 745 mmHg 59%
    10:00 -4°C° 0 mm 5 mps 745 mmHg 52%
    11:00 -2°C° 0 mm 5 mps 745 mmHg 45%
    12:00 -2°C° 0 mm 6 mps 744 mmHg 40%
    13:00 -1°C° 0 mm 6 mps 744 mmHg 36%
    14:00 -1°C° 0 mm 6 mps 743 mmHg 32%
    15:00 0°C° 0 mm 5 mps 742 mmHg 34%
    16:00 0°C° 0 mm 5 mps 742 mmHg 36%
    17:00 0°C° 0 mm 4 mps 741 mmHg 38%
    18:00 -1°C° 0 mm 4 mps 741 mmHg 41%
    19:00 -2°C° 0 mm 5 mps 740 mmHg 43%
    20:00 -4°C° 0 mm 5 mps 740 mmHg 46%
    21:00 -2°C° 0 mm 5 mps 740 mmHg 46%
    22:00 -3°C° 0 mm 6 mps 739 mmHg 46%
    23:00 -3°C° 0 mm 6 mps 739 mmHg 46%

    24 March, Sunday

    Time Temperature Precipitation Wind Pressure Humidity
    00:00 -3°C° 0 mm 7 mps 738 mmHg 48%
    01:00 -3°C° 0 mm 7 mps 737 mmHg 49%
    02:00 -3°C° 0 mm 7 mps 737 mmHg 51%
    03:00 -3°C° 0 mm 7 mps 737 mmHg 53%
    04:00 -3°C° 0 mm 7 mps 736 mmHg 55%
    05:00 -4°C° 0 mm 7 mps 736 mmHg 56%
    06:00 -3°C° 0 mm 7 mps 736 mmHg 54%
    07:00 -2°C° 0 mm 7 mps 736 mmHg 53%
    08:00 -1°C° 0 mm 7 mps 736 mmHg 51%
    09:00 +1°C° 0 mm 8 mps 736 mmHg 46%
    10:00 +2°C° 0 mm 8 mps 735 mmHg 42%
    11:00 +5°C° 0 mm 8 mps 735 mmHg 37%
    12:00 +6°C° 0 mm 8 mps 734 mmHg 34%
    13:00 +7°C° 0 mm 9 mps 734 mmHg 31%
    14:00 +8°C° 0 mm 9 mps 733 mmHg 28%
    15:00 +9°C° 0 mm 7 mps 733 mmHg 30%
    16:00 +9°C° 0 mm 6 mps 733 mmHg 31%
    17:00 +8°C° 0 mm 5 mps 733 mmHg 32%
    18:00 +7°C° 0 mm 4 mps 734 mmHg 35%
    19:00 +6°C° 0 mm 4 mps 734 mmHg 39%
    20:00 +5°C° 0 mm 4 mps 735 mmHg 42%
    21:00 +4°C° 0 mm 3 mps 735 mmHg 44%
    22:00 +4°C° 0 mm 3 mps 735 mmHg 46%
    23:00 +3°C° 0 mm 3 mps 736 mmHg 47%

    25 March, Monday

    Time Temperature Precipitation Wind Pressure Humidity
    00:00 +3°C° 0 mm 3 mps 736 mmHg 49%
    01:00 +1°C° 0 mm 4 mps 736 mmHg 51%
    02:00 0°C° 0 mm 4 mps 736 mmHg 53%
    03:00 0°C° 0 mm 4 mps 736 mmHg 55%
    04:00 0°C° 0 mm 3 mps 736 mmHg 56%
    05:00 -1°C° 0 mm 3 mps 737 mmHg 58%
    06:00 +1°C° 0 mm 3 mps 737 mmHg 53%
    07:00 +1°C° 0 mm 4 mps 737 mmHg 47%
    08:00 +3°C° 0 mm 4 mps 738 mmHg 42%
    09:00 +5°C° 0 mm 4 mps 737 mmHg 36%
    10:00 +7°C° 0 mm 4 mps 737 mmHg 31%
    11:00 +8°C° 0 mm 4 mps 737 mmHg 26%
    12:00 +9°C° 0 mm 5 mps 737 mmHg 27%
    13:00 +9°C° 0 mm 6 mps 736 mmHg 28%
    14:00 +10°C° 0 mm 7 mps 736 mmHg 28%
    15:00 +9°C° 0 mm 7 mps 736 mmHg 30%
    16:00 +8°C° 0 mm 7 mps 736 mmHg 32%
    17:00 +7°C° 0 mm 6 mps 736 mmHg 34%
    18:00 +4°C° 0 mm 6 mps 737 mmHg 35%
    19:00 +3°C° 0 mm 5 mps 738 mmHg 37%
    20:00 +2°C° 0 mm 5 mps 739 mmHg 38%
    21:00 +1°C° 0 mm 4 mps 740 mmHg 42%
    22:00 0°C° 0 mm 4 mps 740 mmHg 46%
    23:00 0°C° 0 mm 3 mps 741 mmHg 51%
    Show more